Kingsport, TN

9:18 AM EST on February 12, 2016 (GMT -0500)
Tri-Cities Regional Tennessee / Virginia

Weather History for KTRI - July, 2012

Change the Weather History Date:

Friday, July 27, 2012

  Actual Average Record
Temperature  
Mean Temperature 80 °F 75 °F  
Max Temperature 88 °F 85 °F 99 °F (1952)
Min Temperature 71 °F 64 °F 51 °F (1962)
Degree Days  
Heating Degree Days 0 0  
Month to date heating degree days 0 0  
Since 1 June heating degree days 5 11  
Since 1 July heating degree days 0 0  
Cooling Degree Days 15 10  
Month to date cooling degree days 365 267  
Year to date cooling degree days 759 546  
Since 1 June cooling degree days 597 473  
Growing Degree Days 28 (Base 50)    
Moisture  
Dew Point 70 °F    
Average Humidity 77    
Maximum Humidity 93    
Minimum Humidity 61    
Precipitation  
Precipitation T in 0.15 in 1.70 in (2014)
Month to date precipitation 12.08 4.09  
Year to date precipitation 30.07 25.38  
Snow  
Snow 0.00 in 0.00 in - ()
Month to date snowfall 0.0 0.0  
Since 1 June snowfall 0.0 0.0  
Since 1 July snowfall 0.0 0.0  
Snow Depth 0.00 in    
Sea Level Pressure  
Sea Level Pressure 29.89 in    
Wind  
Wind Speed 6 mph (WSW)    
Max Wind Speed 15 mph    
Max Gust Speed 22 mph    
Visibility 10 miles    
Events Rain    
T = Trace of Precipitation, MM = Missing Value Source: NWS Daily Summary

Daily Weather History Graph

Daily Weather History Graph

Search for Another Location

Airport or City:

Trip Planner

Search our weather history database for the weather conditions in past years. The results will help you decide how hot, cold, wet, or windy it might be!

Date:

Astronomy

Jul. 27, 2012 Rise Set
Actual Time 6:32 AM EDT 8:39 PM EDT
Civil Twilight 6:03 AM EDT 9:08 PM EDT
Nautical Twilight 5:28 AM EDT 9:43 PM EDT
Astronomical Twilight 4:50 AM EDT 10:21 PM EDT
Moon 3:34 PM EDT (7/27) 1:03 AM EDT (7/27)
Length of Visible Light 15h 04m
Length of Day
14h 07m
Waxing Gibbous, 65% of the Moon is Illuminated
Jul 27
Waxing Gibbous
Aug 1
Full
Aug 9
Last Quarter
Aug 17
New
Aug 24
First Quarter

Hourly Weather History & Observations

Time (EDT) Temp. Heat Index Dew Point Humidity Pressure Visibility Wind Dir Wind Speed Gust Speed Precip Events Conditions
12:53 AM 73.4 °F - 69.8 °F 88% 29.86 in 10.0 mi Calm Calm - N/A   Mostly Cloudy
1:53 AM 72.0 °F - 70.0 °F 93% 29.85 in 10.0 mi Calm Calm - N/A   Scattered Clouds
2:53 AM 72.0 °F - 69.1 °F 91% 29.85 in 10.0 mi Calm Calm - N/A   Overcast
3:53 AM 72.0 °F - 70.0 °F 93% 29.85 in 10.0 mi Calm Calm - N/A   Mostly Cloudy
4:53 AM 72.0 °F - 70.0 °F 93% 29.85 in 10.0 mi Calm Calm - N/A   Mostly Cloudy
5:53 AM 71.1 °F - 70.0 °F 96% 29.85 in 10.0 mi Calm Calm - N/A   Mostly Cloudy
6:53 AM 71.1 °F - 69.1 °F 93% 29.87 in 7.0 mi Calm Calm - N/A   Mostly Cloudy
7:53 AM 75.9 °F - 70.0 °F 82% 29.88 in 10.0 mi SW 5.8 mph - N/A   Scattered Clouds
8:53 AM 79.0 °F - 72.0 °F 79% 29.88 in 10.0 mi West 5.8 mph - N/A   Scattered Clouds
9:53 AM 82.0 °F 86.7 °F 72.0 °F 71% 29.90 in 10.0 mi West 12.7 mph - N/A   Scattered Clouds
10:53 AM 82.9 °F 86.5 °F 69.1 °F 63% 29.92 in 10.0 mi WNW 12.7 mph - N/A   Scattered Clouds
11:53 AM 84.9 °F 90.1 °F 71.1 °F 63% 29.91 in 10.0 mi SW 10.4 mph - N/A   Scattered Clouds
12:53 PM 84.9 °F 89.4 °F 70.0 °F 61% 29.91 in 10.0 mi West 12.7 mph - N/A   Scattered Clouds
1:53 PM 84.9 °F 88.8 °F 69.1 °F 59% 29.91 in 10.0 mi West 11.5 mph - N/A   Mostly Cloudy
2:53 PM 82.9 °F 86.5 °F 69.1 °F 63% 29.91 in 10.0 mi West 10.4 mph - N/A   Mostly Cloudy
3:53 PM 79.0 °F - 71.1 °F 77% 29.92 in 10.0 mi SW 11.5 mph - 0.00 in Rain Light Rain
4:53 PM 81.0 °F 84.9 °F 71.1 °F 72% 29.90 in 10.0 mi SSW 9.2 mph - 0.00 in   Scattered Clouds
5:53 PM 82.9 °F 87.5 °F 71.1 °F 67% 29.89 in 10.0 mi SW 10.4 mph - N/A   Scattered Clouds
6:53 PM 82.0 °F 86.3 °F 71.1 °F 69% 29.88 in 10.0 mi SSW 6.9 mph - N/A   Scattered Clouds
7:53 PM 81.0 °F 84.9 °F 71.1 °F 72% 29.89 in 10.0 mi SW 8.1 mph - N/A   Scattered Clouds
8:53 PM 77.0 °F - 71.1 °F 82% 29.92 in 10.0 mi SW 4.6 mph - N/A   Scattered Clouds
9:53 PM 75.0 °F - 70.0 °F 84% 29.94 in 10.0 mi Calm Calm - N/A   Clear
10:53 PM 73.0 °F - 70.0 °F 90% 29.94 in 10.0 mi Calm Calm - N/A   Clear
11:53 PM 72.0 °F - 70.0 °F 93% 29.93 in 9.0 mi Calm Calm - N/A   Partly Cloudy